Theta_e
286 281 279 284 285 282 281 279 280 281 285 284 283 284 287 287 283 284 286 288 290 292 297 297 296 296 294 294 292 292 290 289 289 287 286 286 286 285 285 285 287 288 291 292
282 279 284 285 285 284 282 279 279 281 283 282 281 281 283 284 285 286 288 288 289 291 291 292 293 292 292 291 292 289 289 289 289 288 288 286 285 284 284 286 286 287 290 292
280 281 285 285 282 281 280 280 278 280 280 279 277 279 279 282 283 285 286 289 290 289 289 290 290 291 291 290 290 289 289 288 288 288 287 286 285 284 283 284 284 286 289 291
282 284 282 281 281 282 277 281 281 280 277 273 276 271 275 281 282 282 285 283 284 286 289 291 291 290 290 290 289 289 288 287 288 288 287 286 285 283 284 284 284 285 287 289
280 279 280 280 280 283 279 281 280 279 275 273 273 272 274 276 279 283 280 283 282 282 287 289 290 291 291 290 288 288 287 287 288 288 288 286 285 284 283 283 283 283 284 287
279 280 280 281 279 281 282 279 278 276 273 266 273 274 273 277 280 279 281 281 282 282 284 288 288 289 288 286 287 287 286 286 287 287 287 286 285 283 283 283 282 281 282 283
277 277 278 280 278 280 278 276 271 267 263 267 272 272 278 281 281 279 280 281 281 280 282 286 286 286 285 285 285 286 285 285 286 286 286 287 285 284 283 283 282 281 281 281
275 273 276 279 278 277 277 277 272 265 266 270 273 270 276 281 282 281 280 278 281 282 282 283 285 285 285 285 284 285 284 285 285 285 286 286 286 285 284 283 283 282 282 282
273 274 275 276 276 278 276 274 277 271 265 266 272 274 279 280 279 279 279 279 279 281 281 281 284 284 284 285 284 285 284 285 284 285 285 285 285 285 284 283 283 283 283 283
279 271 274 275 276 276 276 277 273 271 263 263 270 271 274 276 277 279 278 278 279 282 282 281 284 284 284 285 285 285 285 284 284 285 285 285 285 285 284 284 283 282 283 283
279 278 271 274 272 274 274 273 273 274 272 267 266 271 277 278 278 278 279 280 281 283 282 282 282 283 284 284 284 284 283 283 283 284 284 284 284 284 284 283 283 283 283 283
280 277 269 272 273 274 273 274 274 270 268 270 269 272 280 280 279 280 280 282 282 282 283 281 281 281 283 283 283 283 283 283 284 284 284 284 284 284 283 283 283 283 282 282
279 275 266 271 272 272 268 273 276 276 274 267 267 273 277 278 279 282 282 282 281 280 281 281 281 281 282 282 282 283 283 283 284 284 283 283 283 283 283 283 283 283 282 281
283 275 272 271 273 272 267 269 275 274 266 270 273 275 276 278 278 281 281 281 280 279 281 279 280 280 280 282 282 282 283 283 283 283 283 283 283 283 283 283 282 281 281 280
280 272 269 270 273 272 270 267 271 272 274 270 274 275 276 279 280 281 280 280 281 282 280 279 278 279 279 280 281 282 283 283 282 282 282 282 283 284 283 282 282 281 281 281
276 270 271 272 275 275 272 272 271 273 274 272 274 274 279 281 281 279 280 281 280 279 278 277 278 278 279 279 280 281 282 282 282 282 281 282 282 282 281 281 281 280 280 279
275 274 271 269 274 275 272 276 271 272 269 273 271 277 282 281 280 279 281 280 278 277 277 276 276 276 277 277 280 280 281 281 281 281 281 281 281 281 281 281 280 280 279 279
275 274 275 270 272 266 273 274 274 276 279 278 280 282 281 280 281 280 277 277 277 276 275 275 274 274 275 275 278 280 280 280 280 279 280 280 280 280 280 280 279 278 278 277
280 276 272 269 268 270 275 273 272 272 274 279 280 281 281 277 277 277 275 274 274 273 273 273 272 273 273 273 276 278 278 279 279 279 279 280 280 279 279 278 276 275 275 274
278 279 274 272 267 263 268 274 275 275 271 276 279 280 280 278 274 275 270 272 271 271 271 271 271 272 271 272 274 276 275 275 274 276 277 277 279 278 276 275 275 276 274 274
268 273 271 271 270 269 273 275 276 268 272 277 280 280 279 276 274 272 271 270 271 270 269 269 269 269 268 270 272 270 270 270 271 273 274 275 275 275 274 274 274 273 273 273
268 269 270 272 270 267 275 276 275 277 279 279 279 279 278 276 271 270 270 270 269 268 267 268 267 266 266 267 269 268 268 269 269 271 271 271 272 273 272 271 271 271 271 270
268 271 269 273 273 274 278 279 280 281 280 280 279 278 277 276 275 272 269 268 264 264 267 266 265 264 262 264 266 266 267 268 268 269 269 269 270 270 271 270 269 269 269 268
273 272 272 273 272 275 277 278 279 281 281 281 281 280 279 276 276 272 268 267 266 266 264 265 264 262 262 264 266 266 267 267 267 267 267 268 268 268 269 269 269 268 267 266
271 272 271 270 273 275 278 278 277 278 280 280 280 279 278 276 274 272 269 267 266 265 264 264 263 263 263 264 264 265 267 267 266 267 267 267 268 268 267 268 268 268 268 268
270 266 268 267 273 274 274 277 277 277 277 277 277 276 277 275 273 270 267 266 265 264 263 263 262 262 263 263 264 265 266 267 266 266 267 267 267 268 268 268 269 274 273 273
Wind_Speed
5 5 12 18 14 4 6 4 6 3 5 5 9 14 14 11 6 11 13 13 16 20 21 15 15 13 12 13 16 18 17 16 12 9 7 5 5 4 3 3 5 5 5 6
3 16 14 5 6 6 6 5 11 6 4 6 6 14 10 9 10 13 18 19 21 17 9 11 12 14 17 17 17 16 16 15 11 8 6 3 4 2 2 3 4 5 5 6
8 3 9 12 6 8 7 13 4 8 3 3 5 13 8 10 9 10 15 21 15 14 11 11 14 18 16 18 18 16 16 16 13 10 6 4 4 4 2 3 3 4 5 6
9 5 5 6 8 8 7 7 6 4 2 5 2 11 6 6 9 7 15 8 11 11 11 11 14 15 19 18 15 17 17 17 15 15 12 10 10 7 4 4 3 4 5 6
9 7 7 5 6 9 6 5 5 3 3 2 3 3 3 1 8 15 4 7 9 9 9 12 16 19 16 14 15 15 16 16 16 16 14 11 11 5 3 4 7 5 4 6
2 1 3 3 3 2 8 6 7 5 3 4 9 9 5 6 10 3 1 5 8 9 7 6 5 7 9 9 12 14 16 17 17 16 15 15 13 9 8 8 7 4 4 3
2 2 1 3 5 4 3 7 1 4 3 9 2 4 13 10 4 1 3 5 7 6 4 6 9 9 9 13 13 13 15 15 15 16 15 15 14 13 12 12 9 9 6 3
10 8 8 5 5 9 7 8 8 9 6 4 4 9 10 3 5 6 5 2 6 8 5 1 6 7 10 12 13 14 14 14 14 16 15 13 13 9 8 11 9 8 7 6
6 4 1 3 2 2 7 8 4 7 3 4 6 8 11 4 5 5 7 5 4 5 6 3 5 8 8 11 15 18 16 13 14 15 13 13 12 12 10 11 10 8 7 6
4 1 2 1 0 0 2 3 4 2 4 5 5 6 8 4 8 7 5 4 2 4 6 4 5 8 8 11 12 12 14 16 15 14 13 12 13 11 10 10 11 10 9 9
2 3 1 2 7 8 3 3 0 3 5 7 2 8 9 9 9 9 7 3 3 5 4 5 7 7 7 6 9 12 11 13 12 13 12 12 11 12 11 11 11 12 11 10
6 4 4 6 1 1 1 5 6 6 6 3 3 11 2 10 9 8 4 5 1 3 7 8 9 6 6 8 8 12 11 12 13 13 12 12 11 11 12 11 11 11 11 9
3 3 3 4 2 3 4 5 4 3 2 6 8 8 2 7 6 6 7 4 3 6 9 8 8 8 5 6 7 10 11 12 11 11 12 11 12 13 13 12 12 11 11 10
3 3 5 10 5 5 5 5 7 4 4 5 14 6 6 5 3 5 1 6 5 4 5 4 6 7 7 6 7 8 9 10 11 12 12 13 13 14 13 12 12 12 11 11
4 6 4 3 3 4 5 5 6 15 14 10 9 17 6 3 6 8 7 8 8 9 9 9 10 10 9 7 6 7 8 10 11 12 12 13 12 11 11 12 12 11 11 11
1 4 3 4 3 4 4 8 8 15 14 14 14 32 6 5 2 6 6 5 7 7 7 7 10 11 10 9 7 7 8 10 12 12 12 10 9 10 11 11 11 11 10 9
3 5 2 5 2 5 11 19 14 8 7 8 16 28 2 5 7 4 4 3 3 5 7 9 9 11 11 11 10 9 8 7 10 10 8 10 11 11 11 11 12 11 11 10
4 2 3 1 3 8 9 0 2 20 22 20 24 24 4 5 4 4 2 2 4 5 6 9 9 11 10 11 9 3 6 9 9 8 9 10 11 11 10 11 11 10 9 10
14 6 3 4 5 9 14 6 7 9 11 15 21 20 9 3 2 2 3 3 2 4 5 6 7 8 10 11 11 2 5 7 7 8 9 9 10 11 11 11 11 10 12 10
6 12 7 4 5 9 6 3 4 4 9 5 9 4 6 5 3 3 1 1 2 2 3 6 8 7 9 12 10 6 6 6 5 6 6 7 11 13 13 13 13 9 12 12
2 3 12 10 6 8 7 6 4 7 5 4 4 6 6 5 2 3 4 2 1 1 3 4 5 6 9 10 7 8 7 8 4 7 9 10 10 12 13 13 13 13 14 14
6 6 5 6 5 9 1 3 3 3 4 5 8 9 9 5 4 4 4 2 1 3 4 6 5 6 8 8 5 7 9 5 6 9 12 12 11 10 10 16 13 14 15 16
7 4 3 5 2 2 8 11 9 11 9 8 5 4 3 1 4 4 3 3 1 3 4 5 4 4 6 7 6 7 5 6 9 12 12 12 12 11 11 14 15 13 12 12
4 5 2 4 4 13 5 9 11 5 3 4 5 7 6 6 4 4 3 3 3 2 2 2 3 5 7 7 7 6 6 8 11 13 12 11 13 13 11 9 9 11 10 11
8 2 2 9 12 8 8 12 11 12 5 4 5 5 5 5 3 5 5 5 4 4 3 4 4 5 6 5 7 5 5 9 12 12 11 12 11 12 12 10 8 9 8 9
4 6 4 12 4 2 13 11 9 10 6 5 3 5 4 5 8 7 7 6 6 6 5 6 6 6 5 6 7 6 5 7 11 12 9 9 10 10 11 12 12 22 22 25
Wind_Direction
209 158 197 200 198 151 157 195 222 225 210 199 225 245 251 261 234 256 251 246 235 229 232 215 202 188 175 180 178 177 174 170 161 162 156 158 177 161 167 171 168 167 166 154
123 232 215 169 183 211 240 257 261 284 227 181 266 264 248 242 241 228 242 243 241 241 215 198 188 181 182 179 182 176 172 167 166 165 162 141 141 157 154 158 168 170 170 161
190 234 183 172 174 186 221 226 212 232 325 261 340 280 237 255 256 258 248 247 258 235 221 197 185 186 177 184 181 174 172 167 165 163 135 111 89 84 133 174 158 186 173 171
242 225 157 173 209 156 226 194 180 198 129 247 102 288 293 233 267 264 262 273 263 229 220 202 194 187 188 188 176 173 169 169 166 163 171 171 187 174 183 163 151 162 173 174
224 169 172 175 202 164 226 151 168 138 155 355 213 310 245 338 272 256 344 323 307 273 212 196 194 196 189 174 175 174 168 171 171 176 180 177 184 162 141 139 149 162 175 172
275 347 159 187 84 124 144 86 49 54 70 308 186 172 234 192 223 9 44 349 339 338 257 219 191 162 167 156 168 173 173 179 175 178 181 182 181 161 155 160 168 168 165 169
81 227 114 132 96 24 108 109 320 349 4 233 179 191 259 283 260 259 352 337 338 339 340 172 158 165 159 169 175 176 177 183 179 180 181 182 184 176 174 170 172 169 171 171
194 235 169 180 194 174 189 167 168 195 200 247 107 228 251 267 151 104 95 306 18 1 20 187 187 175 179 179 180 180 183 182 182 181 185 186 180 176 176 176 171 176 177 171
162 232 52 57 344 114 183 211 155 101 44 50 221 278 302 168 108 105 96 92 64 350 14 17 188 200 187 184 188 187 184 186 183 185 178 182 178 175 174 172 169 172 159 162
196 89 33 36 341 89 180 194 102 358 151 234 263 266 228 132 161 145 139 156 68 16 19 349 232 227 211 200 193 190 189 187 185 184 183 183 178 177 166 164 172 169 164 165
147 130 77 80 205 178 166 199 127 127 159 179 215 256 221 157 163 156 197 140 48 17 342 296 272 246 221 200 185 189 184 181 181 183 181 180 179 169 161 169 172 172 167 168
203 126 169 197 105 33 256 214 165 142 223 229 151 262 218 148 146 142 167 123 281 295 271 268 270 280 214 199 186 191 183 185 186 184 180 180 167 167 164 173 173 168 170 167
219 223 69 329 359 7 191 196 210 158 98 209 138 262 62 123 131 144 131 169 259 284 295 309 302 288 259 209 191 189 185 190 181 175 177 176 174 173 177 173 166 165 159 159
81 301 204 226 187 140 182 215 200 153 160 156 232 241 175 217 277 149 270 297 276 271 314 319 337 316 286 230 203 193 189 183 173 174 179 181 181 183 176 167 165 160 162 157
150 227 189 249 209 158 192 176 192 207 215 192 259 233 149 235 350 336 323 336 341 339 354 353 335 326 321 287 221 198 189 178 171 177 179 185 182 181 167 161 162 159 158 160
212 259 166 253 201 240 277 229 194 219 239 264 288 275 171 183 274 284 292 323 320 331 336 334 326 324 323 312 256 206 191 182 172 177 183 171 163 158 164 156 155 149 145 142
225 186 108 257 168 111 277 246 207 205 202 175 225 244 133 193 172 202 260 264 311 330 329 331 328 320 318 312 293 216 192 158 171 169 165 160 159 164 163 152 149 150 147 140
187 207 200 180 135 213 243 43 185 218 235 220 247 258 170 158 166 166 184 127 353 343 335 331 327 322 322 319 320 217 151 161 162 155 157 158 160 155 145 146 147 135 133 132
208 182 218 202 217 317 294 179 168 171 257 230 236 251 248 113 97 119 122 84 17 337 326 323 324 317 320 335 329 115 127 135 142 154 155 155 151 139 136 130 126 120 116 112
186 213 201 176 200 214 254 310 124 122 285 307 224 219 159 131 99 258 175 130 91 20 350 335 333 331 347 344 343 57 71 88 102 130 129 125 136 136 132 131 127 117 112 111
137 191 220 227 235 279 248 250 127 95 264 340 41 85 97 74 169 198 164 144 150 90 351 358 356 4 352 341 1 53 57 58 35 84 96 99 111 118 118 114 115 115 111 107
189 187 198 209 214 252 319 83 127 300 1 32 30 36 54 87 180 195 201 211 12 17 13 15 22 15 357 353 34 57 62 36 59 83 89 94 103 110 114 114 112 114 117 112
248 208 204 203 167 54 351 50 35 35 41 19 36 42 86 293 265 174 211 181 73 25 26 26 36 18 5 8 30 74 49 60 79 85 89 92 93 98 107 115 117 114 113 113
325 343 -0 333 343 351 2 61 38 63 32 357 336 311 285 250 230 199 168 191 170 140 87 52 51 45 34 18 40 55 73 88 91 91 92 95 98 99 95 97 106 113 117 116
255 71 148 293 302 343 271 318 358 341 318 284 283 261 254 263 213 188 187 172 168 146 112 99 85 71 53 36 47 42 66 99 97 96 97 98 97 98 98 90 99 102 97 116
166 197 254 272 273 257 284 309 340 315 327 349 340 305 235 190 192 181 174 161 150 136 123 100 89 82 65 58 54 48 56 96 107 103 102 106 109 108 108 111 110 105 110 111